Simultaneous Nadir Overpasses (SNOs) Predictions

Prediction of SNOs between AURA and NPP Satellite Orbit:

Table of predicted SNOs for the next 14.0 days since TLE Epoch: 7/31/2012
Index Date (AURA) Time (AURA) AURA Lat,Lon Date (NPP) Time (NPP) NPP Lat,Lon Distance(km) Time Diff (sec)
1 08/01/2012 12:14:21 79.66,-105.83 08/01/2012 12:13:26 79.66,-105.89 1.45 55
2 08/01/2012 13:03:42 -79.88, 63.50 08/01/2012 13:04:04 -79.88, 63.49 0.54 22
3 08/04/2012 04:30:47 79.77, 10.88 08/04/2012 04:30:16 79.78, 10.98 1.96 31
4 08/04/2012 05:20:09 -79.96, 179.98 08/04/2012 05:20:55 -79.97,-179.89 2.58 46
5 08/06/2012 20:47:16 79.80, 126.96 08/06/2012 20:47:10 79.80, 126.94 0.38 6
6 08/06/2012 21:36:38 -79.99, -63.92 08/06/2012 21:37:49 -79.99, -63.92 0.11 71
7 08/09/2012 12:14:24
